Location: Antin
(43.3330°N, 0.2804°E)
Time: 11:06:12
(UTC+00:00)

Cosmos 489 Rocket - Pass Details

Date: 16 October 2021
Orbit: 953 x 983 km, 74.0° (Epoch: 04 December)

Event Time Altitude Azimuth Distance (km) Brightness Sun altitude
Rises 19:00:33 0° 339° (NNW) 3,640 7.9 -20.1°
Reaches altitude 10° 19:03:05 10° 341° (NNW) 2,689 7.1 -20.6°
Maximum altitude 19:09:19 84° 70° (ENE) 963 4.3 -21.7°
Enters shadow 19:13:44 20° 158° (SSE) 2,026 5.9 -22.5°
